DLH2MF EDDM-ELLX

Flight info

Callsign DLH2MF
Flight time 0h 49m
Altitude 24000
Route GIVMI6Q GIVMI Y101 ERNAS T161 GOLMO DCT AKANU L603 RATIM DCT NOKDI Z104 AGBUL T894 BITBU Z110 BETEX
Aircraft A20N/M-SDE2E3FGHIRWXY/LB1

Departure

Time 2026-05-04 12:21
Airport Munich Airport (EDDM)

Arrival

Time 2026-05-04 13:10
Airport Luxembourg-Findel International Airport (ELLX)
Time Latitude Longitude Altitude Speed Heading
2026-05-04 12:01 48.35162 11.79364 1485 ft 0 kts 263°
2026-05-04 12:05 48.35164 11.79393 1482 ft 5 kts 266°
2026-05-04 12:05 48.35165 11.79443 1475 ft 5 kts 272°
2026-05-04 12:06 48.35161 11.79483 1474 ft 3 kts 297°
2026-05-04 12:06 48.35150 11.79502 1477 ft 3 kts 336°
2026-05-04 12:06 48.35137 11.79508 1473 ft 2 kts 351°
2026-05-04 12:06 48.35126 11.79510 1472 ft 1 kts 353°
2026-05-04 12:10 48.35127 11.79510 1485 ft 1 kts 353°
2026-05-04 12:10 48.35149 11.79506 1475 ft 6 kts 353°
2026-05-04 12:11 48.35213 11.79495 1481 ft 11 kts 353°
2026-05-04 12:11 48.35300 11.79480 1474 ft 7 kts 353°
2026-05-04 12:11 48.35372 11.79468 1481 ft 15 kts 353°
2026-05-04 12:11 48.35488 11.79446 1485 ft 18 kts 353°
2026-05-04 12:12 48.35619 11.79425 1475 ft 19 kts 354°
2026-05-04 12:12 48.35757 11.79403 1485 ft 21 kts 352°
2026-05-04 12:12 48.35882 11.79378 1472 ft 17 kts 351°
2026-05-04 12:12 48.36000 11.79329 1478 ft 18 kts 355°
2026-05-04 12:13 48.36051 11.79322 1477 ft 5 kts 353°
2026-05-04 12:14 48.35983 11.77853 1482 ft 28 kts 260°
2026-05-04 12:15 48.35958 11.77554 1485 ft 29 kts 267°
2026-05-04 12:15 48.35939 11.77295 1485 ft 25 kts 264°
2026-05-04 12:15 48.35919 11.77059 1480 ft 20 kts 263°
2026-05-04 12:15 48.35923 11.76899 1476 ft 15 kts 303°
2026-05-04 12:16 48.36013 11.76819 1482 ft 13 kts 352°
2026-05-04 12:16 48.36085 11.76808 1472 ft 11 kts 354°
2026-05-04 12:16 48.36127 11.76801 1482 ft 5 kts 353°
2026-05-04 12:16 48.36144 11.76798 1481 ft 0 kts 353°
2026-05-04 12:18 48.36145 11.76798 1481 ft 1 kts 353°
2026-05-04 12:18 48.36205 11.76787 1480 ft 15 kts 353°
2026-05-04 12:18 48.36274 11.76831 1481 ft 10 kts 81°
2026-05-04 12:19 48.36292 11.76945 1475 ft 7 kts 85°
2026-05-04 12:19 48.36292 11.76948 1475 ft 0 kts 86°
2026-05-04 12:20 48.36292 11.76949 1475 ft 4 kts 86°
2026-05-04 12:20 48.36323 11.77367 1474 ft 75 kts 84°
2026-05-04 12:20 48.36406 11.78463 1485 ft 132 kts 83°
2026-05-04 12:20 48.36534 11.80050 1548 ft 168 kts 83°
2026-05-04 12:21 48.36670 11.81807 2146 ft 169 kts 82°
2026-05-04 12:21 48.36813 11.83561 2880 ft 168 kts 83°
2026-05-04 12:21 48.36945 11.85321 3579 ft 174 kts 83°
2026-05-04 12:21 48.37085 11.87151 4091 ft 184 kts 79°
2026-05-04 12:22 48.37683 11.88945 4393 ft 206 kts 46°
2026-05-04 12:22 48.38996 11.90031 4856 ft 229 kts 14°
2026-05-04 12:22 48.40668 11.89945 5336 ft 254 kts 342°
2026-05-04 12:22 48.42236 11.88523 5957 ft 274 kts 314°
2026-05-04 12:23 48.43322 11.86160 6558 ft 282 kts 296°
2026-05-04 12:23 48.44184 11.83514 7041 ft 280 kts 294°
2026-05-04 12:23 48.45154 11.80940 7574 ft 284 kts 301°
2026-05-04 12:23 48.46326 11.78529 8013 ft 284 kts 307°
2026-05-04 12:24 48.47599 11.76242 8479 ft 287 kts 308°
2026-05-04 12:24 48.48896 11.74005 8909 ft 285 kts 309°
2026-05-04 12:24 48.50220 11.71738 9428 ft 290 kts 309°
2026-05-04 12:24 48.51555 11.69430 9945 ft 290 kts 308°
2026-05-04 12:25 48.52874 11.67119 10427 ft 292 kts 307°
2026-05-04 12:25 48.54186 11.64809 10913 ft 295 kts 307°
2026-05-04 12:25 48.55529 11.62438 11412 ft 296 kts 307°
2026-05-04 12:25 48.56871 11.60054 11924 ft 300 kts 307°
2026-05-04 12:26 48.58245 11.57610 12439 ft 314 kts 307°
2026-05-04 12:26 48.59684 11.55046 12969 ft 331 kts 307°
2026-05-04 12:26 48.61216 11.52321 13522 ft 349 kts 307°
2026-05-04 12:26 48.62828 11.49449 14031 ft 362 kts 307°
2026-05-04 12:27 48.64463 11.46548 14481 ft 362 kts 307°
2026-05-04 12:27 48.66114 11.43620 14980 ft 365 kts 307°
2026-05-04 12:27 48.67744 11.40717 15465 ft 368 kts 307°
2026-05-04 12:27 48.69443 11.37807 15963 ft 371 kts 312°
2026-05-04 12:28 48.71409 11.35213 16474 ft 376 kts 320°
2026-05-04 12:28 48.73590 11.32974 16988 ft 380 kts 324°
2026-05-04 12:28 48.75798 11.30754 17511 ft 382 kts 323°
2026-05-04 12:28 48.78018 11.28505 18043 ft 385 kts 323°
2026-05-04 12:29 48.80228 11.26261 18546 ft 387 kts 323°
2026-05-04 12:29 48.82469 11.23982 19020 ft 389 kts 323°
2026-05-04 12:29 48.84685 11.21589 19507 ft 390 kts 318°
2026-05-04 12:29 48.86712 11.18833 19982 ft 391 kts 314°
2026-05-04 12:30 48.88696 11.16058 20478 ft 394 kts 314°
2026-05-04 12:30 48.90727 11.13233 20975 ft 396 kts 315°
2026-05-04 12:30 48.92774 11.10387 21491 ft 399 kts 314°
2026-05-04 12:30 48.94740 11.07397 22015 ft 399 kts 307°
2026-05-04 12:31 48.96329 11.03935 22549 ft 398 kts 296°
2026-05-04 12:31 48.97477 11.00105 23102 ft 398 kts 286°
2026-05-04 12:31 48.98362 10.96090 23631 ft 401 kts 286°
2026-05-04 12:31 48.99250 10.92099 23912 ft 403 kts 286°
2026-05-04 12:32 49.00158 10.88040 24004 ft 404 kts 286°
2026-05-04 12:32 49.01966 10.79927 24016 ft 403 kts 286°
2026-05-04 12:32 49.02855 10.75917 24016 ft 404 kts 286°
2026-05-04 12:33 49.03756 10.71849 24025 ft 404 kts 286°
2026-05-04 12:33 49.04856 10.67895 24024 ft 407 kts 295°
2026-05-04 12:33 49.06396 10.64237 24026 ft 411 kts 305°
2026-05-04 12:33 49.08302 10.61038 24024 ft 414 kts 313°
2026-05-04 12:34 49.10380 10.57993 24032 ft 414 kts 313°
2026-05-04 12:34 49.12461 10.54917 24032 ft 414 kts 313°
2026-05-04 12:34 49.14530 10.51845 24031 ft 414 kts 313°
2026-05-04 12:34 49.16566 10.48815 24025 ft 414 kts 313°
2026-05-04 12:35 49.18625 10.45750 24027 ft 414 kts 313°
2026-05-04 12:35 49.20694 10.42669 24024 ft 413 kts 313°
2026-05-04 12:35 49.22761 10.39586 24017 ft 413 kts 312°
2026-05-04 12:35 49.24683 10.36337 24019 ft 411 kts 306°
2026-05-04 12:36 49.26486 10.32935 24010 ft 411 kts 306°
2026-05-04 12:36 49.28279 10.29580 24010 ft 411 kts 306°
2026-05-04 12:36 49.30101 10.26177 24005 ft 411 kts 306°
2026-05-04 12:36 49.31309 10.23919 24003 ft 411 kts 306°
2026-05-04 12:37 49.33716 10.19411 23998 ft 411 kts 306°
2026-05-04 12:37 49.34943 10.17109 23999 ft 411 kts 306°
2026-05-04 12:37 49.36733 10.13743 23996 ft 412 kts 306°
2026-05-04 12:37 49.38542 10.10340 23997 ft 412 kts 306°
2026-05-04 12:38 49.40358 10.06916 23994 ft 412 kts 306°
2026-05-04 12:38 49.42172 10.03490 23994 ft 412 kts 306°
2026-05-04 12:38 49.43959 10.00110 23992 ft 412 kts 306°
2026-05-04 12:38 49.45767 9.96686 23996 ft 412 kts 306°
2026-05-04 12:39 49.47581 9.93247 23996 ft 413 kts 306°
2026-05-04 12:39 49.49390 9.89815 23994 ft 413 kts 306°
2026-05-04 12:39 49.51195 9.86385 23996 ft 413 kts 306°
2026-05-04 12:39 49.53006 9.82939 23996 ft 413 kts 305°
2026-05-04 12:40 49.54812 9.79497 23998 ft 413 kts 305°
2026-05-04 12:40 49.56600 9.76085 23997 ft 413 kts 305°
2026-05-04 12:40 49.58400 9.72645 23997 ft 413 kts 305°
2026-05-04 12:40 49.60210 9.69184 23997 ft 413 kts 305°
2026-05-04 12:41 49.62014 9.65728 23995 ft 413 kts 305°
2026-05-04 12:41 49.63817 9.62271 23994 ft 413 kts 305°
2026-05-04 12:41 49.65623 9.58804 23995 ft 413 kts 305°
2026-05-04 12:41 49.67403 9.55315 23993 ft 412 kts 302°
2026-05-04 12:42 49.68873 9.51607 23997 ft 408 kts 293°
2026-05-04 12:42 49.69977 9.47588 23996 ft 404 kts 285°
2026-05-04 12:42 49.70731 9.43408 23999 ft 403 kts 281°
2026-05-04 12:42 49.71441 9.39219 24000 ft 403 kts 281°
2026-05-04 12:43 49.72160 9.35027 23999 ft 403 kts 281°
2026-05-04 12:43 49.72880 9.30834 23998 ft 403 kts 281°
2026-05-04 12:43 49.73595 9.26642 23996 ft 403 kts 281°
2026-05-04 12:43 49.74307 9.22445 23996 ft 403 kts 281°
2026-05-04 12:44 49.75006 9.18314 23998 ft 403 kts 281°
2026-05-04 12:44 49.75714 9.14113 23998 ft 402 kts 281°
2026-05-04 12:44 49.76418 9.09923 23997 ft 403 kts 281°
2026-05-04 12:44 49.77122 9.05728 23995 ft 402 kts 281°
2026-05-04 12:45 49.77824 9.01532 23992 ft 402 kts 281°
2026-05-04 12:45 49.78524 8.97337 23993 ft 403 kts 281°
2026-05-04 12:45 49.79224 8.93137 23994 ft 402 kts 281°
2026-05-04 12:45 49.79911 8.88997 23992 ft 402 kts 281°
2026-05-04 12:46 49.80609 8.84788 23991 ft 402 kts 281°
2026-05-04 12:46 49.81303 8.80588 23990 ft 402 kts 281°
2026-05-04 12:46 49.81996 8.76385 23988 ft 402 kts 280°
2026-05-04 12:46 49.82688 8.72182 23992 ft 402 kts 280°
2026-05-04 12:47 49.83377 8.67980 23989 ft 402 kts 280°
2026-05-04 12:47 49.84056 8.63829 23992 ft 402 kts 280°
2026-05-04 12:47 49.84745 8.59609 23992 ft 402 kts 280°
2026-05-04 12:47 49.85424 8.55437 23990 ft 402 kts 280°
2026-05-04 12:48 49.86107 8.51234 23990 ft 402 kts 280°
2026-05-04 12:48 49.86790 8.47023 23991 ft 402 kts 280°
2026-05-04 12:48 49.87452 8.42801 23989 ft 402 kts 279°
2026-05-04 12:48 49.88095 8.38584 23988 ft 402 kts 279°
2026-05-04 12:49 49.88734 8.34362 23984 ft 402 kts 279°
2026-05-04 12:49 49.89375 8.30130 23977 ft 403 kts 279°
2026-05-04 12:49 49.90018 8.25886 23745 ft 404 kts 279°
2026-05-04 12:49 49.90653 8.21699 23370 ft 400 kts 279°
2026-05-04 12:50 49.91288 8.17509 22952 ft 396 kts 279°
2026-05-04 12:50 49.91916 8.13354 22553 ft 395 kts 279°
2026-05-04 12:50 49.92540 8.09203 22158 ft 394 kts 279°
2026-05-04 12:50 49.93161 8.05065 21766 ft 392 kts 279°
2026-05-04 12:51 49.93777 8.00949 21382 ft 391 kts 279°
2026-05-04 12:51 49.94382 7.96904 21007 ft 389 kts 279°
2026-05-04 12:51 49.95100 7.92842 20637 ft 390 kts 283°
2026-05-04 12:51 49.95868 7.88812 20256 ft 388 kts 283°
2026-05-04 12:52 49.96631 7.84798 19888 ft 386 kts 283°
2026-05-04 12:52 49.97389 7.80796 19526 ft 385 kts 283°
2026-05-04 12:52 49.98141 7.76808 19166 ft 383 kts 283°
2026-05-04 12:52 49.98880 7.72877 18822 ft 382 kts 283°
2026-05-04 12:53 49.99657 7.68944 18473 ft 381 kts 284°
2026-05-04 12:53 50.00442 7.64999 18091 ft 378 kts 279°
2026-05-04 12:53 50.00711 7.60969 17706 ft 372 kts 268°
2026-05-04 12:53 50.00773 7.56957 17309 ft 369 kts 268°
2026-05-04 12:54 50.00828 7.52967 16923 ft 367 kts 268°
2026-05-04 12:54 50.00882 7.49063 16546 ft 364 kts 268°
2026-05-04 12:54 50.00937 7.45161 16164 ft 357 kts 268°
2026-05-04 12:54 50.00991 7.41341 15797 ft 350 kts 268°
2026-05-04 12:55 50.01045 7.37589 15422 ft 343 kts 268°
2026-05-04 12:55 50.01101 7.33905 15053 ft 338 kts 268°
2026-05-04 12:55 50.01155 7.30312 14691 ft 332 kts 268°
2026-05-04 12:55 50.01209 7.26745 14333 ft 327 kts 268°
2026-05-04 12:56 50.01265 7.23240 13975 ft 322 kts 268°
2026-05-04 12:56 50.01323 7.19775 13592 ft 317 kts 268°
2026-05-04 12:56 50.01379 7.16358 13185 ft 313 kts 268°
2026-05-04 12:56 50.01383 7.13012 12795 ft 305 kts 259°
2026-05-04 12:57 50.00779 7.09972 12420 ft 295 kts 243°
2026-05-04 12:57 49.99961 7.07070 12038 ft 292 kts 243°
2026-05-04 12:57 49.99148 7.04197 11654 ft 288 kts 243°
2026-05-04 12:57 49.98336 7.01324 11275 ft 285 kts 243°
2026-05-04 12:58 49.97504 6.98588 10905 ft 281 kts 237°
2026-05-04 12:58 49.96458 6.96051 10546 ft 277 kts 233°
2026-05-04 12:58 49.95382 6.93578 10173 ft 275 kts 233°
2026-05-04 12:58 49.94315 6.91117 9813 ft 272 kts 233°
2026-05-04 12:59 49.93263 6.88681 9413 ft 270 kts 233°
2026-05-04 12:59 49.92217 6.86271 9017 ft 267 kts 233°
2026-05-04 12:59 49.91195 6.83916 8628 ft 265 kts 233°
2026-05-04 12:59 49.90170 6.81547 8251 ft 263 kts 233°
2026-05-04 13:00 49.89157 6.79195 7875 ft 261 kts 233°
2026-05-04 13:00 49.88096 6.76918 7495 ft 258 kts 229°
2026-05-04 13:00 49.86972 6.74759 7124 ft 255 kts 228°
2026-05-04 13:00 49.85859 6.72627 6750 ft 253 kts 228°
2026-05-04 13:01 49.84772 6.70536 6391 ft 251 kts 228°
2026-05-04 13:01 49.83681 6.68441 6006 ft 249 kts 228°
2026-05-04 13:01 49.82577 6.66370 5624 ft 248 kts 228°
2026-05-04 13:01 49.81462 6.64336 5251 ft 248 kts 228°
2026-05-04 13:02 49.80353 6.62340 5025 ft 240 kts 228°
2026-05-04 13:02 49.79298 6.60434 4977 ft 226 kts 227°
2026-05-04 13:02 49.78271 6.58694 4969 ft 212 kts 226°
2026-05-04 13:02 49.77295 6.57108 4969 ft 195 kts 225°
2026-05-04 13:03 49.76391 6.55659 4982 ft 178 kts 225°
2026-05-04 13:03 49.75601 6.54375 4964 ft 149 kts 225°
2026-05-04 13:03 49.74970 6.53333 4963 ft 118 kts 225°
2026-05-04 13:03 49.74412 6.52403 4982 ft 125 kts 225°
2026-05-04 13:04 49.73827 6.51433 4997 ft 114 kts 225°
2026-05-04 13:04 49.73293 6.50478 4959 ft 119 kts 229°
2026-05-04 13:04 49.72839 6.49436 4874 ft 116 kts 235°
2026-05-04 13:04 49.72459 6.48320 4846 ft 118 kts 239°
2026-05-04 13:05 49.72137 6.47141 4819 ft 121 kts 242°
2026-05-04 13:05 49.71807 6.45936 4650 ft 121 kts 240°
2026-05-04 13:05 49.71447 6.44760 4440 ft 124 kts 240°
2026-05-04 13:05 49.71048 6.43567 4219 ft 125 kts 237°
2026-05-04 13:06 49.70619 6.42390 3934 ft 124 kts 236°
2026-05-04 13:06 49.70192 6.41242 3598 ft 123 kts 237°
2026-05-04 13:06 49.69740 6.40072 3391 ft 135 kts 234°
2026-05-04 13:06 49.69188 6.38867 3341 ft 134 kts 232°
2026-05-04 13:07 49.68701 6.37709 3247 ft 126 kts 237°
2026-05-04 13:07 49.68274 6.36492 3166 ft 129 kts 240°
2026-05-04 13:07 49.67881 6.35246 3044 ft 130 kts 241°
2026-05-04 13:07 49.67454 6.34012 2858 ft 133 kts 237°
2026-05-04 13:08 49.66984 6.32779 2645 ft 134 kts 236°
2026-05-04 13:08 49.66506 6.31540 2384 ft 132 kts 235°
2026-05-04 13:08 49.66035 6.30313 2194 ft 132 kts 237°
2026-05-04 13:08 49.65596 6.29102 2141 ft 130 kts 237°
2026-05-04 13:09 49.65142 6.27893 2029 ft 127 kts 234°
2026-05-04 13:09 49.64692 6.26713 1819 ft 126 kts 238°
2026-05-04 13:09 49.64251 6.25510 1606 ft 130 kts 239°
2026-05-04 13:09 49.63811 6.24298 1378 ft 131 kts 239°
2026-05-04 13:10 49.63360 6.23079 1247 ft 131 kts 239°
2026-05-04 13:10 49.62946 6.21971 1219 ft 98 kts 239°
2026-05-04 13:10 49.62707 6.21333 1219 ft 40 kts 239°
2026-05-04 13:10 49.62660 6.21041 1219 ft 27 kts 266°
2026-05-04 13:11 49.62646 6.20835 1219 ft 13 kts 274°
2026-05-04 13:11 49.62682 6.20754 1219 ft 9 kts 345°
2026-05-04 13:11 49.62753 6.20744 1217 ft 12 kts 14°
2026-05-04 13:11 49.62822 6.20826 1217 ft 14 kts 59°
2026-05-04 13:12 49.62864 6.20970 1217 ft 16 kts 64°
2026-05-04 13:12 49.62896 6.21060 1218 ft 0 kts 63°
2026-05-04 13:12 49.62902 6.21079 1218 ft 3 kts 63°
2026-05-04 13:12 49.62924 6.21147 1217 ft 10 kts 63°
2026-05-04 13:13 49.62960 6.21268 1217 ft 14 kts 65°
2026-05-04 13:13 49.63005 6.21417 1217 ft 17 kts 64°
2026-05-04 13:13 49.63060 6.21588 1217 ft 19 kts 64°
2026-05-04 13:13 49.63103 6.21734 1218 ft 0 kts 66°
2026-05-04 13:14 49.63122 6.21794 1218 ft 15 kts 64°
2026-05-04 13:14 49.63166 6.21926 1219 ft 15 kts 64°
2026-05-04 13:15 49.63213 6.22077 1219 ft 13 kts 64°
2026-05-04 13:15 49.63276 6.22107 1218 ft 11 kts 334°
2026-05-04 13:15 49.63337 6.22023 1218 ft 13 kts 315°
2026-05-04 13:15 49.63352 6.21896 1218 ft 8 kts 257°
2026-05-04 13:16 49.63331 6.21808 1218 ft 3 kts 244°
2026-05-04 13:16 49.63332 6.21774 1218 ft 4 kts 306°
2026-05-04 13:16 49.63359 6.21750 1218 ft 3 kts 331°
2026-05-04 13:16 49.63371 6.21739 1218 ft 0 kts 331°
2026-05-04 13:17 49.63374 6.21737 1218 ft 0 kts 331°